DELTA 1 DEB (YO), 228

Orbit data source: Space-Track

DELTA 1 DEB (YO), 228 is space debris in LEO originally from a launch on Thu, 08 Feb 1962 UTC launched from the Air Force Eastern Test Range (AFETR). Debris objects in space refer to the collection of defunct objects orbiting the Earth. Examples of debris include non-operational satellites, rocket bodies, and fragments generated from explosions, collisions, or faulty payload assembly.

Loading next visibility...
Identifier
228, 1962-002C
Orbit
LEO
Last TLE update
10 hours ago
Origin
Manufacturer
RCA/East Windsor
Mission
Spacecraft
Bus & Motor
Unknown
Mass
~1 kg wet, ~1 kg dry
Launch date (UTC)
1962-02-08 (63 years ago)
Launch vehicle
Unknown
Launch site
Air Force Eastern Test Range (AFETR)
Object type
Payload
Rocket body
Debris
Shape & HBR
Unknown
Radar Cross Section
Small (<0.1 m²)

Expand to show TLE details & history

TLE from 10 hours ago
0 DELTA 1 DEB (YO)
1 00228U 62002C   25182.48344785  .00012563  00000-0  41270-3 0  9997
2 00228  48.4335 350.5171 0010640 286.6577  73.3190 15.31767330389015
Epoch: 2025-07-01T11:36Z
TLE epoch observation values (Epoch: 2025-07-01T11:36:09.894Z)
Latitude
-0.00007°
Longitude
-103.30244°
Altitude
468.837 km
Speed
7.634 km/s
True Right ascension
23h 22m 04s
True Declination
0° 00' 00"
Sunlit
Object was in daylight at epoch
Visualization orbit readout
Latitude
48.47223°
Longitude
-10.17369°
Altitude
482.495 km
Speed
7.627 km/s
Apparent Right ascension
01h 02m 40s
Apparent Declination
13° 58' 13"
Sunlit
Object is in daylight
Visualization observer readout
Local Sidereal Time
09:04:22
Azimuth
300.886° NW
Elevation
-12.829°
Doppler factor
1
Orbital elements
Apogee altitude
478.863 km
Perigee altitude
464.287 km
Semi-major axis
6,849.712 km
Eccentricity
0.00106
Inclination
48.4335°
RAAN
350.5171°
Arg. of periapsis
286.6577°
True anomaly
Unknown
Mean anomaly
73.319°
Eccentric anomaly
Unknown
Mean motion
3.82855 °/min
Orbital period
94.03 mins
BSTAR
0.0004127
Loading maneuver chart data...
Loading SW <> Apogee altitude chart data...
Loading historical data...
Loading historical data...
Loading historical data...
Loading historical data...
Loading historical data...
Loading historical data...
Loading historical data...
Other satellites on launch #2 in the year 1962 (1962-02-08 UTC)

DELTA 1 DEB (YO) Visibility forecast

Observer location: undefined°, undefined°

Span
Click to sort rows by Start time (UTC) header in descending order
Start Az.
Max El. time (UTC)
Max El. Az.
Max El.
End time (UTC)
End Az.
5 mins2025-07-01 21:32:07.664Z266.369° W2025-07-01 21:34:07.664Z224.793° SW21.363°2025-07-01 21:37:07.664Z169.7° S
5 mins2025-07-02 14:26:07.664Z239.15° WSW2025-07-02 14:28:07.664Z247.324° WSW44.219°2025-07-02 14:31:07.664Z58.175° ENE
4 mins2025-07-02 16:05:07.664Z303.254° NW2025-07-02 16:07:07.664Z351.686° N23.809°2025-07-02 16:09:07.664Z35.166° NE
4 mins2025-07-02 17:44:07.664Z326.639° NNW2025-07-02 17:46:07.664Z10.169° NNE20.885°2025-07-02 17:48:07.664Z50.675° ENE
5 mins2025-07-02 19:23:07.664Z322.357° NNW2025-07-02 19:25:07.664Z47.738° ENE37.197°2025-07-02 19:28:07.664Z102.223° ESE
4 mins2025-07-02 21:01:07.664Z263.389° W2025-07-02 21:03:07.664Z213.683° SW23.748°2025-07-02 21:05:07.664Z172.34° S
|